User: anonymous   Login
Location: Fort Wayne
(41.1310°N, 85.1290°W)
Time: 03:21:29
(UTC-04:00)
Language:

COSMOS 2406 - Orbit

View from above orbital plane
View from above orbital plane
View from above satellite
View from above satellite

Ground track
Ground track

The orbit data is extracted from the following two-line orbital elements,

1 28352U 04021A   17083.92474511 +.00000291 +00000-0 +18561-3 0  9995
2 28352 071.0043 300.6373 0016754 239.6375 120.3090 14.11626893658912
Epoch (UTC): 24 March 2017 22:11:37
Eccentricity: 0.0016754
inclination: 71.0043°
perigee height: 841 km
apogee height: 866 km
right ascension of ascending node: 300.6373°
argument of perigee: 239.6375°
revolutions per day: 14.11626893
mean anomaly at epoch: 120.3090°
orbit number at epoch: 65891

The dashed part of the orbit path shows where the satellite is in the earth's shadow,  

DLR